Regional Weather Roundup
Issued by NWS

Home | Current Version | Previous Version | Text Only | Print | Product List | Glossary Off
Versions: 1 2 3 4 5 6 7 8 9 10 11 12 13 14 15 16 17 18 19 20 21 22 23 24 25 26 27 28 29 30 31 32 33 34 35 36 37 38 39 40 41 42 43 44 45 46 47 48 49 50

000
ASUS45 KPSR 200800
RWRAZ

PRELIMINARY ARIZONA REGIONAL HOURLY WEATHER ROUNDUP
NATIONAL WEATHER SERVICE PHOENIX AZ
100 AM MST SAT SEP 20 2014

NOTE: FAIR INDICATES FEW OR NO CLOUDS BELOW 12,000 FEET WITH NO
SIGNIFICANT WEATHER AND/OR OBSTRUCTIONS TO VISIBILITY.

AZZ001>003-036-200900-
NORTHWEST ARIZONA

CITY           SKY/WX    TMP DP  RH WIND       PRES   REMARKS
KINGMAN        CLEAR     68  46  45 S8        29.99S
$$

AZZ004>008-015-016-018-200900-
NORTH CENTRAL ARIZONA

CITY           SKY/WX    TMP DP  RH WIND       PRES   REMARKS
GRAND CANYON   CLEAR     51  49  92 NE7       30.22R
PRESCOTT       CLEAR     61  51  70 SW3       30.11R
FLAGSTAFF      CLEAR     51  49  92 CALM      30.24R
PAYSON         CLEAR     64  59  82 CALM      30.12R
PAGE           CLEAR     74  51  44 SW3       30.02R
$$

AZZ009>014-017-200900-
NORTHEAST ARIZONA

CITY           SKY/WX    TMP DP  RH WIND       PRES   REMARKS
WINSLOW        NOT AVBL
SAINT JOHNS    CLEAR     66  57  72 SW7       30.12R
WINDOW ROCK    CLEAR     52  43  71 CALM      30.20
$$

AZZ023-200900-
GREATER PHOENIX AREA

CITY           SKY/WX    TMP DP  RH WIND       PRES   REMARKS
PHOENIX        PTCLDY    86  62  44 SE3       29.81R
DEER VALLEY    CLEAR     82  61  48 E5        29.83R
SCOTTSDALE     CLEAR     86  61  42 CALM      29.85R
$$

AZZ027-028-200900-
SOUTHWEST MARICOPA COUNTY AND PINAL COUNTY

CITY           SKY/WX    TMP DP  RH WIND       PRES   REMARKS
CASA GRANDE    PTCLDY    81  68  65 CALM      29.86R
$$

AZZ503-504-507>509-200900-
SOUTHEAST ARIZONA

CITY           SKY/WX    TMP DP  RH WIND       PRES   REMARKS
TUCSON         CLEAR     76  69  79 CALM      29.96R
DAVIS-MONTHAN  CLEAR     75  68  79 S2        29.94S
NOGALES        CLEAR     67  64  90 NE3       30.03S
SIERRA VISTA   CLEAR     68  63  84 SW6       30.08S
SAFFORD        CLEAR     73  68  84 CALM      29.95R
$$

AZZ020-021-025-026-031-200900-
SOUTHWEST ARIZONA

CITY           SKY/WX    TMP DP  RH WIND       PRES   REMARKS
YUMA           NOT AVBL
$$

CAZ031-033-041-043-047-048-061-200900-
SOUTHERN CALIFORNIA

CITY           SKY/WX    TMP DP  RH WIND       PRES   REMARKS
DOWNTOWN L.A.  CLEAR     68  62  81 CALM      29.89S
L.A. AIRPORT   CLEAR    N/A N/A N/A S3        29.90S
SAN DIEGO      CLOUDY    71  62  73 W5        29.92S
BURBANK        CLEAR     67  60  78 SE5       29.89S
ONTARIO        CLEAR     67  60  78 W5        29.91S
RIVERSIDE      CLEAR     68  60  75 W3        29.92R
PALM SPRINGS   CLEAR     83  58  42 NW7       29.81S
EL CENTRO NAS  CLEAR     85  57  38 W8        29.75R
IMPERIAL       CLEAR     82  59  45 W5        29.75R
BLYTHE         CLEAR     84  53  34 CALM      29.77R
$$

NVZ020-UTZ003-200900-
SOUTHERN NEVADA-UTAH

CITY           SKY/WX    TMP DP  RH WIND       PRES   REMARKS
LAS VEGAS      NOT AVBL
SALT LAKE CITY CLEAR     63  53  70 SW3       30.10R
$$

NMZ009-TXZ055-200900-
NEW MEXICO-WEST TEXAS

CITY           SKY/WX    TMP DP  RH WIND       PRES   REMARKS
ALBUQUERQUE    PTCLDY    67  57  70 W3        30.12R
EL PASO        PTCLDY    71  65  81 NE6       30.00S
$$


........................KEY........................
SKY/WX - SKY CONDITION/WEATHER
TMP    - TEMPERATURE IN FAHRENHEIT
DP     - DEW POINT IN FAHRENHEIT
RH     - RELATIVE HUMIDITY IN PERCENT
WIND   - DIRECTION AND SPEED IN MILES PER HOUR (MPH)
VRB    - VARIABLE WIND DIRECTION
PRES   - MEAN SEA LEVEL PRESSURE IN INCHES OF MERCURY
         F - FALLING PRESSURE   R - RISING PRESSURE
         S - STEADY PRESSURE
VSB    - VISIBILITY IN MILES
HX     - HEAT INDEX IN FAHRENHEIT
WCI    - WIND CHILL INDEX IN FAHRENHEIT
TC     - TEMPERATURE IN CELSIUS WHICH IS ALSO KNOWN AS
         TEMPERATURE IN CENTIGRADE
AFB    - AIR FORCE BASE
         LUKE AFB IS LUKE AIR FORCE BASE
         DAVIS-MONTHAN IS DAVIS-MONTHAN AIR FORCE BASE
NAS    - NAVAL AIR STATION
         EL CENTRO NAS IS EL CENTRO NAVAL AIR STATION
N/A    - NOT AVAILABLE



USA.gov is the U.S. government's official web portal to all federal, state and local government web resources and services.